• In Kazakhstan
  • List of Countries
  • For 7 days
  • Water Temperature
  • Weather Map
  • News
  • Weather Widgets
  • user-avatar
    Login

    Hourly Weather Kanye

    Today, 8 December, Sunday

    Time Temperature Precipitation Wind Pressure Humidity
    00:00 +16°C° 0 mm 5 mps 647 mmHg 92%
    01:00 +16°C° 0 mm 5 mps 647 mmHg 93%
    02:00 +17°C° 0 mm 4 mps 647 mmHg 93%
    03:00 +17°C° 0 mm 4 mps 646 mmHg 93%
    04:00 +17°C° 0 mm 4 mps 646 mmHg 93%
    05:00 +17°C° 0 mm 5 mps 646 mmHg 94%
    06:00 +17°C° 0 mm 5 mps 647 mmHg 92%
    07:00 +19°C° 0 mm 5 mps 647 mmHg 90%
    08:00 +20°C° 0 mm 5 mps 648 mmHg 88%
    09:00 +20°C° 0 mm 5 mps 648 mmHg 86%
    10:00 +20°C° 0 mm 4 mps 648 mmHg 84%
    11:00 +21°C° 0 mm 4 mps 648 mmHg 81%
    12:00 +22°C° 0.2 mm 3 mps 647 mmHg 76%
    13:00 +24°C° 0.2 mm 3 mps 647 mmHg 71%
    14:00 +26°C° 0 mm 2 mps 647 mmHg 62%
    15:00 +25°C° 1 mm 1 mps 647 mmHg 63%
    16:00 +25°C° 1 mm 1 mps 646 mmHg 64%
    17:00 +25°C° 1 mm 1 mps 646 mmHg 66%
    18:00 +24°C° 0.6 mm 1 mps 646 mmHg 70%
    19:00 +23°C° 0.6 mm 2 mps 646 mmHg 75%
    20:00 +21°C° 0.6 mm 2 mps 646 mmHg 79%
    21:00 +20°C° 0.2 mm 2 mps 646 mmHg 82%
    22:00 +20°C° 0.2 mm 2 mps 646 mmHg 84%
    23:00 +19°C° 0.2 mm 2 mps 647 mmHg 86%

    Tomorrow, 9 December, Monday

    Time Temperature Precipitation Wind Pressure Humidity
    00:00 +19°C° 0.2 mm 2 mps 646 mmHg 88%
    01:00 +18°C° 0.2 mm 2 mps 646 mmHg 89%
    02:00 +18°C° 0.2 mm 2 mps 645 mmHg 91%
    03:00 +18°C° 0 mm 2 mps 645 mmHg 92%
    04:00 +17°C° 0 mm 2 mps 645 mmHg 94%
    05:00 +17°C° 0 mm 3 mps 646 mmHg 96%
    06:00 +19°C° 0.1 mm 3 mps 646 mmHg 91%
    07:00 +20°C° 0.1 mm 4 mps 647 mmHg 86%
    08:00 +21°C° 0.1 mm 5 mps 648 mmHg 81%
    09:00 +23°C° 1 mm 6 mps 648 mmHg 74%
    10:00 +24°C° 1 mm 6 mps 648 mmHg 66%
    11:00 +27°C° 1 mm 6 mps 648 mmHg 58%
    12:00 +27°C° 1.8 mm 5 mps 648 mmHg 57%
    13:00 +27°C° 1.8 mm 4 mps 648 mmHg 55%
    14:00 +28°C° 1.8 mm 4 mps 647 mmHg 54%
    15:00 +26°C° 2.2 mm 4 mps 647 mmHg 60%
    16:00 +25°C° 2.2 mm 4 mps 646 mmHg 66%
    17:00 +23°C° 2.2 mm 5 mps 646 mmHg 72%
    18:00 +22°C° 1.5 mm 5 mps 646 mmHg 76%
    19:00 +21°C° 1.5 mm 4 mps 646 mmHg 79%
    20:00 +20°C° 1.5 mm 4 mps 647 mmHg 83%
    21:00 +19°C° 0.9 mm 4 mps 647 mmHg 84%
    22:00 +19°C° 0.9 mm 3 mps 647 mmHg 85%
    23:00 +19°C° 0.9 mm 2 mps 648 mmHg 86%

    Day after tomorrow, 10 December, Tuesday

    Time Temperature Precipitation Wind Pressure Humidity
    00:00 +19°C° 1.1 mm 3 mps 647 mmHg 86%
    01:00 +19°C° 1.1 mm 3 mps 647 mmHg 86%
    02:00 +19°C° 1.1 mm 4 mps 647 mmHg 86%
    03:00 +18°C° 0.5 mm 4 mps 647 mmHg 88%
    04:00 +18°C° 0.5 mm 4 mps 647 mmHg 90%
    05:00 +18°C° 0.5 mm 4 mps 647 mmHg 93%
    06:00 +18°C° 0 mm 4 mps 647 mmHg 89%
    07:00 +19°C° 0 mm 5 mps 648 mmHg 85%
    08:00 +20°C° 0 mm 5 mps 648 mmHg 81%
    09:00 +22°C° 0.4 mm 5 mps 649 mmHg 74%
    10:00 +23°C° 0.4 mm 5 mps 649 mmHg 67%
    11:00 +25°C° 0.4 mm 5 mps 649 mmHg 60%
    12:00 +26°C° 1.2 mm 4 mps 649 mmHg 56%
    13:00 +26°C° 1.2 mm 4 mps 648 mmHg 53%
    14:00 +26°C° 1.2 mm 4 mps 648 mmHg 50%
    15:00 +25°C° 1.4 mm 4 mps 647 mmHg 55%
    16:00 +23°C° 1.4 mm 4 mps 647 mmHg 60%
    17:00 +22°C° 1.4 mm 4 mps 646 mmHg 65%
    18:00 +21°C° 0.4 mm 3 mps 646 mmHg 71%
    19:00 +20°C° 0.4 mm 3 mps 647 mmHg 76%
    20:00 +19°C° 0.4 mm 3 mps 647 mmHg 81%
    21:00 +18°C° 0.3 mm 3 mps 647 mmHg 80%
    22:00 +18°C° 0.3 mm 3 mps 647 mmHg 80%
    23:00 +18°C° 0.3 mm 3 mps 648 mmHg 79%

    11 December, Wednesday

    Time Temperature Precipitation Wind Pressure Humidity
    00:00 +17°C° 0.1 mm 3 mps 647 mmHg 82%
    01:00 +17°C° 0.1 mm 3 mps 647 mmHg 85%
    02:00 +17°C° 0.1 mm 3 mps 647 mmHg 89%
    03:00 +16°C° 0 mm 3 mps 647 mmHg 89%
    04:00 +16°C° 0 mm 2 mps 647 mmHg 90%
    05:00 +16°C° 0 mm 2 mps 647 mmHg 90%
    06:00 +17°C° 0 mm 2 mps 647 mmHg 84%
    07:00 +19°C° 0 mm 2 mps 648 mmHg 77%
    08:00 +20°C° 0 mm 3 mps 648 mmHg 71%
    09:00 +22°C° 0 mm 3 mps 649 mmHg 60%
    10:00 +26°C° 0 mm 3 mps 649 mmHg 49%
    11:00 +28°C° 0 mm 3 mps 650 mmHg 38%
    12:00 +29°C° 0 mm 4 mps 649 mmHg 34%
    13:00 +30°C° 0 mm 5 mps 649 mmHg 30%
    14:00 +32°C° 0 mm 6 mps 649 mmHg 26%
    15:00 +32°C° 0 mm 6 mps 648 mmHg 26%
    16:00 +32°C° 0 mm 6 mps 648 mmHg 26%
    17:00 +32°C° 0 mm 5 mps 648 mmHg 26%
    18:00 +29°C° 0 mm 4 mps 648 mmHg 30%
    19:00 +27°C° 0 mm 3 mps 647 mmHg 33%
    20:00 +26°C° 0 mm 2 mps 647 mmHg 36%
    21:00 +25°C° 0 mm 2 mps 648 mmHg 36%
    22:00 +24°C° 0 mm 3 mps 648 mmHg 36%
    23:00 +24°C° 0 mm 3 mps 648 mmHg 36%

    12 December, Thursday

    Time Temperature Precipitation Wind Pressure Humidity
    00:00 +23°C° 0 mm 2 mps 648 mmHg 39%
    01:00 +21°C° 0 mm 2 mps 647 mmHg 43%
    02:00 +22°C° 0 mm 1 mps 647 mmHg 46%
    03:00 +21°C° 0 mm 1 mps 647 mmHg 47%
    04:00 +21°C° 0 mm 1 mps 647 mmHg 48%
    05:00 +20°C° 0 mm 1 mps 647 mmHg 49%
    06:00 +22°C° 0 mm 1 mps 648 mmHg 47%
    07:00 +24°C° 0 mm 1 mps 648 mmHg 45%
    08:00 +26°C° 0 mm 2 mps 649 mmHg 43%
    09:00 +28°C° 0 mm 1 mps 650 mmHg 36%
    10:00 +30°C° 0 mm 1 mps 650 mmHg 30%
    11:00 +32°C° 0 mm 1 mps 651 mmHg 23%
    12:00 +32°C° 0 mm 1 mps 650 mmHg 20%
    13:00 +34°C° 0 mm 2 mps 650 mmHg 17%
    14:00 +35°C° 0 mm 3 mps 650 mmHg 15%
    15:00 +35°C° 0 mm 3 mps 649 mmHg 15%
    16:00 +34°C° 0 mm 3 mps 649 mmHg 15%
    17:00 +34°C° 0 mm 4 mps 648 mmHg 16%
    18:00 +31°C° 0 mm 3 mps 648 mmHg 19%
    19:00 +29°C° 0 mm 2 mps 648 mmHg 22%
    20:00 +27°C° 0 mm 2 mps 648 mmHg 26%
    21:00 +27°C° 0 mm 2 mps 648 mmHg 27%
    22:00 +26°C° 0 mm 2 mps 648 mmHg 28%
    23:00 +25°C° 0 mm 2 mps 649 mmHg 29%

    13 December, Friday

    Time Temperature Precipitation Wind Pressure Humidity
    00:00 +24°C° 0 mm 2 mps 648 mmHg 31%
    01:00 +24°C° 0 mm 2 mps 648 mmHg 33%
    02:00 +23°C° 0 mm 1 mps 648 mmHg 34%
    03:00 +21°C° 0 mm 2 mps 648 mmHg 46%
    04:00 +20°C° 0 mm 4 mps 648 mmHg 59%
    05:00 +19°C° 0 mm 5 mps 648 mmHg 71%
    06:00 +20°C° 0 mm 5 mps 648 mmHg 73%
    07:00 +20°C° 0 mm 6 mps 649 mmHg 76%
    08:00 +21°C° 0 mm 7 mps 649 mmHg 79%
    09:00 +23°C° 0 mm 7 mps 650 mmHg 72%
    10:00 +24°C° 0 mm 6 mps 650 mmHg 65%
    11:00 +27°C° 0 mm 6 mps 651 mmHg 57%
    12:00 +29°C° 0 mm 5 mps 650 mmHg 48%
    13:00 +32°C° 0 mm 4 mps 650 mmHg 39%
    14:00 +34°C° 0 mm 3 mps 650 mmHg 29%
    15:00 +34°C° 0 mm 3 mps 650 mmHg 28%
    16:00 +33°C° 0 mm 3 mps 649 mmHg 27%
    17:00 +33°C° 0 mm 3 mps 649 mmHg 26%
    18:00 +30°C° 0 mm 3 mps 649 mmHg 35%
    19:00 +27°C° 0 mm 3 mps 648 mmHg 43%
    20:00 +25°C° 0 mm 3 mps 648 mmHg 52%
    21:00 +24°C° 0 mm 2 mps 648 mmHg 56%
    22:00 +23°C° 0 mm 2 mps 648 mmHg 61%
    23:00 +23°C° 0 mm 2 mps 648 mmHg 65%
    Show more